Location: ????????
(55.3939°N, 37.4780°E)
Time: 17:52:22
(UTC+00:00)

ADEOS - Pass Details

Date: 14 April 2026
Orbit: 789 x 791 km, 98.8° (Epoch: 16 May)

Event Time Altitude Azimuth Distance (km) Brightness Sun altitude
Exits shadow 17:22:31 - 156° (SSE) 3,086 6.1 -7.2°
Reaches altitude 10° 17:24:21 10° 155° (SSE) 2,356 5.5 -7.5°
Maximum altitude 17:29:32 77° 70° (ENE) 820 3.6 -8.1°
Drops below altitude 10° 17:34:46 10° 346° (NNW) 2,372 6.8 -8.7°
Sets 17:37:06 0° 345° (NNW) 3,306 7.6 -9.0°
